Previsão horária em Cayuny

Hoje, 25 Julho, Domingo

Tempo Temperatura Precipitação Vento Pressão Humidade
00:00 +16°C° 0 mm 1 m/s 750 mmHg 76%
01:00 +16°C° 0 mm 1 m/s 750 mmHg 76%
02:00 +16°C° 0 mm 1 m/s 750 mmHg 76%
03:00 +16°C° 0 mm 1 m/s 750 mmHg 74%
04:00 +16°C° 0 mm 1 m/s 750 mmHg 73%
05:00 +18°C° 0 mm 1 m/s 750 mmHg 72%
06:00 +19°C° 0 mm 1 m/s 750 mmHg 69%
07:00 +20°C° 0 mm 1 m/s 750 mmHg 66%
08:00 +22°C° 0 mm 1 m/s 750 mmHg 63%
09:00 +23°C° 0 mm 1 m/s 751 mmHg 60%
10:00 +24°C° 0 mm 1 m/s 751 mmHg 57%
11:00 +25°C° 0 mm 1 m/s 751 mmHg 54%
12:00 +26°C° 0 mm 2 m/s 751 mmHg 51%
13:00 +27°C° 0 mm 2 m/s 751 mmHg 49%
14:00 +28°C° 0 mm 2 m/s 751 mmHg 47%
15:00 +27°C° 0 mm 2 m/s 751 mmHg 50%
16:00 +27°C° 0 mm 1 m/s 750 mmHg 53%
17:00 +26°C° 0 mm 1 m/s 750 mmHg 56%
18:00 +25°C° 0 mm 1 m/s 750 mmHg 61%
19:00 +24°C° 0 mm 1 m/s 751 mmHg 67%
20:00 +22°C° 0 mm 1 m/s 751 mmHg 72%
21:00 +22°C° 0 mm 1 m/s 751 mmHg 73%
22:00 +21°C° 0 mm 1 m/s 751 mmHg 74%
23:00 +21°C° 0 mm 1 m/s 751 mmHg 75%

Amanhã, 26 Julho, Segunda-feira

Tempo Temperatura Precipitação Vento Pressão Humidade
00:00 +19°C° 0 mm 2 m/s 751 mmHg 75%
01:00 +19°C° 0 mm 2 m/s 751 mmHg 76%
02:00 +19°C° 0 mm 2 m/s 751 mmHg 77%
03:00 +18°C° 0 mm 2 m/s 751 mmHg 79%
04:00 +18°C° 0 mm 2 m/s 751 mmHg 80%
05:00 +17°C° 0 mm 2 m/s 752 mmHg 81%
06:00 +19°C° 0 mm 2 m/s 752 mmHg 76%
07:00 +21°C° 0 mm 2 m/s 752 mmHg 71%
08:00 +24°C° 0 mm 3 m/s 752 mmHg 65%
09:00 +25°C° 0 mm 3 m/s 752 mmHg 60%
10:00 +27°C° 0 mm 3 m/s 752 mmHg 54%
11:00 +28°C° 0 mm 3 m/s 752 mmHg 49%
12:00 +29°C° 0 mm 3 m/s 752 mmHg 47%
13:00 +29°C° 0 mm 3 m/s 752 mmHg 45%
14:00 +29°C° 0 mm 3 m/s 751 mmHg 44%
15:00 +29°C° 0 mm 3 m/s 751 mmHg 45%
16:00 +29°C° 0 mm 3 m/s 751 mmHg 47%
17:00 +29°C° 0 mm 3 m/s 751 mmHg 49%
18:00 +27°C° 0 mm 3 m/s 751 mmHg 55%
19:00 +25°C° 0 mm 3 m/s 751 mmHg 61%
20:00 +22°C° 0 mm 3 m/s 751 mmHg 68%
21:00 +21°C° 0 mm 3 m/s 751 mmHg 66%
22:00 +21°C° 0 mm 3 m/s 751 mmHg 65%
23:00 +21°C° 0 mm 3 m/s 751 mmHg 64%

Depois de amanhã, 27 Julho, Terça-feira

Tempo Temperatura Precipitação Vento Pressão Humidade
00:00 +21°C° 0 mm 3 m/s 751 mmHg 66%
01:00 +20°C° 0 mm 3 m/s 751 mmHg 69%
02:00 +19°C° 0 mm 3 m/s 751 mmHg 71%
03:00 +19°C° 0 mm 3 m/s 750 mmHg 72%
04:00 +19°C° 0 mm 3 m/s 750 mmHg 73%
05:00 +19°C° 0 mm 4 m/s 750 mmHg 73%
06:00 +20°C° 0 mm 4 m/s 750 mmHg 71%
07:00 +21°C° 0 mm 4 m/s 750 mmHg 69%
08:00 +22°C° 0 mm 5 m/s 750 mmHg 66%
09:00 +25°C° 0 mm 5 m/s 750 mmHg 63%
10:00 +26°C° 0 mm 6 m/s 749 mmHg 59%
11:00 +27°C° 0 mm 6 m/s 749 mmHg 55%
12:00 +26°C° 0.1 mm 5 m/s 749 mmHg 60%
13:00 +25°C° 0.1 mm 5 m/s 749 mmHg 66%
14:00 +23°C° 0.1 mm 4 m/s 749 mmHg 71%
15:00 +25°C° 0.1 mm 5 m/s 749 mmHg 68%
16:00 +26°C° 0.1 mm 5 m/s 748 mmHg 66%
17:00 +26°C° 0.1 mm 5 m/s 748 mmHg 63%
18:00 +25°C° 0.3 mm 5 m/s 748 mmHg 71%
19:00 +22°C° 0.3 mm 5 m/s 747 mmHg 78%
20:00 +21°C° 0.3 mm 4 m/s 747 mmHg 86%
21:00 +20°C° 0.6 mm 4 m/s 747 mmHg 88%
22:00 +20°C° 0.6 mm 3 m/s 747 mmHg 91%
23:00 +19°C° 0.6 mm 3 m/s 747 mmHg 94%

28 Julho, Quarta-feira

Tempo Temperatura Precipitação Vento Pressão Humidade
00:00 +19°C° 0.2 mm 3 m/s 746 mmHg 95%
01:00 +19°C° 0.2 mm 3 m/s 746 mmHg 96%
02:00 +19°C° 0.2 mm 2 m/s 746 mmHg 98%
03:00 +19°C° 0.2 mm 2 m/s 746 mmHg 98%
04:00 +19°C° 0.2 mm 2 m/s 746 mmHg 98%
05:00 +19°C° 0.2 mm 2 m/s 745 mmHg 98%
06:00 +20°C° 0 mm 2 m/s 745 mmHg 95%
07:00 +21°C° 0 mm 2 m/s 745 mmHg 91%
08:00 +23°C° 0 mm 1 m/s 746 mmHg 88%
09:00 +24°C° 0 mm 2 m/s 745 mmHg 79%
10:00 +26°C° 0 mm 2 m/s 745 mmHg 71%
11:00 +28°C° 0 mm 2 m/s 745 mmHg 62%
12:00 +29°C° 0 mm 3 m/s 745 mmHg 58%
13:00 +29°C° 0 mm 3 m/s 745 mmHg 54%
14:00 +30°C° 0 mm 3 m/s 745 mmHg 50%
15:00 +30°C° 0 mm 3 m/s 745 mmHg 51%
16:00 +29°C° 0 mm 3 m/s 745 mmHg 53%
17:00 +29°C° 0 mm 3 m/s 745 mmHg 54%
18:00 +27°C° 0 mm 3 m/s 745 mmHg 61%
19:00 +26°C° 0 mm 2 m/s 745 mmHg 68%
20:00 +24°C° 0 mm 2 m/s 744 mmHg 75%
21:00 +23°C° 0.1 mm 2 m/s 744 mmHg 75%
22:00 +23°C° 0.1 mm 2 m/s 744 mmHg 76%
23:00 +21°C° 0.1 mm 2 m/s 744 mmHg 77%

29 Julho, Quinta-feira

Tempo Temperatura Precipitação Vento Pressão Humidade
00:00 +20°C° 1.9 mm 3 m/s 745 mmHg 84%
01:00 +19°C° 1.9 mm 3 m/s 745 mmHg 90%
02:00 +18°C° 1.9 mm 4 m/s 745 mmHg 97%
03:00 +18°C° 0.6 mm 3 m/s 745 mmHg 97%
04:00 +18°C° 0.6 mm 3 m/s 745 mmHg 97%
05:00 +18°C° 0.6 mm 2 m/s 746 mmHg 98%
06:00 +18°C° 0 mm 3 m/s 746 mmHg 94%
07:00 +19°C° 0 mm 3 m/s 746 mmHg 91%
08:00 +20°C° 0 mm 4 m/s 746 mmHg 87%
09:00 +21°C° 0 mm 4 m/s 746 mmHg 78%
10:00 +23°C° 0 mm 5 m/s 746 mmHg 69%
11:00 +25°C° 0 mm 5 m/s 746 mmHg 60%
12:00 +26°C° 0 mm 5 m/s 746 mmHg 57%
13:00 +26°C° 0 mm 5 m/s 746 mmHg 54%
14:00 +27°C° 0 mm 5 m/s 746 mmHg 51%
15:00 +26°C° 0 mm 4 m/s 746 mmHg 55%
16:00 +26°C° 0 mm 4 m/s 746 mmHg 59%
17:00 +25°C° 0 mm 4 m/s 746 mmHg 62%
18:00 +24°C° 0.1 mm 3 m/s 746 mmHg 68%
19:00 +22°C° 0.1 mm 3 m/s 746 mmHg 73%
20:00 +20°C° 0.1 mm 2 m/s 746 mmHg 78%
21:00 +19°C° 0 mm 2 m/s 746 mmHg 83%
22:00 +18°C° 0 mm 2 m/s 746 mmHg 87%
23:00 +17°C° 0 mm 2 m/s 746 mmHg 92%

30 Julho, Sexta-feira

Tempo Temperatura Precipitação Vento Pressão Humidade
00:00 +16°C° 0 mm 2 m/s 746 mmHg 92%
01:00 +16°C° 0 mm 2 m/s 746 mmHg 91%
02:00 +16°C° 0 mm 1 m/s 746 mmHg 91%
03:00 +15°C° 0 mm 1 m/s 747 mmHg 91%
04:00 +15°C° 0 mm 1 m/s 747 mmHg 91%
05:00 +15°C° 0 mm 1 m/s 747 mmHg 91%
06:00 +17°C° 0 mm 2 m/s 747 mmHg 85%
07:00 +19°C° 0 mm 2 m/s 747 mmHg 78%
08:00 +21°C° 0 mm 2 m/s 747 mmHg 72%
09:00 +24°C° 0 mm 3 m/s 747 mmHg 65%
10:00 +25°C° 0 mm 3 m/s 747 mmHg 58%
11:00 +27°C° 0 mm 4 m/s 747 mmHg 51%
12:00 +27°C° 0 mm 4 m/s 746 mmHg 51%
13:00 +28°C° 0 mm 4 m/s 746 mmHg 51%
14:00 +28°C° 0 mm 4 m/s 746 mmHg 51%
15:00 +28°C° 0 mm 3 m/s 746 mmHg 54%
16:00 +28°C° 0 mm 3 m/s 745 mmHg 56%
17:00 +28°C° 0 mm 2 m/s 745 mmHg 59%
18:00 +26°C° 0.1 mm 2 m/s 745 mmHg 66%
19:00 +25°C° 0.1 mm 3 m/s 745 mmHg 73%
20:00 +22°C° 0.1 mm 3 m/s 745 mmHg 80%
21:00 +21°C° 0.1 mm 3 m/s 745 mmHg 83%
22:00 +21°C° 0.1 mm 2 m/s 745 mmHg 85%
23:00 +20°C° 0.1 mm 2 m/s 745 mmHg 88%
Mostrar mais

Necessitamos do seu Consentimento

A Meteoprog e os seus Fornecedores de Serviços podem armazenar e aceder a dados pessoais como cookies, identificadores do dispositivo ou outras tecnologias semelhantes existentes no seu dispositivo e processar estes dados para personalizar conteúdos e anúncios, assim como funcionalidades nas redes sociais e análise de tráfego.

  • Armazenar e/ou aceder a informações no seu dispositivo

    Os cookies, identificadores do dispositivo ou outras informações podem ser armazenados ou acedidos no seu dispositivo, para os fins acima indicados.

  • Anúncios e conteúdos personalizados, medição de anúncios e conteúdos, dados sobre o público-alvo e desenvolvimento de produtos

    Os anúncios e os conteúdos podem ser personalizados com base num perfil. Podem ser adicionados dados adicionais para uma maior personalização dos anúncios e dos conteúdos. A eficácia dos anúncios e dos conteúdos pode ser medida. Podem ser obtidas informações sobre o público que visualizou os anúncios e os conteúdos. Estes dados podem ser usados para desenvolver ou melhorar sistemas, softwares ou a experiência do utilizador.

Ao clicar em "Eu concordo”, permitirá o uso de cookies, identificadores do dispositivo e web beacons mencionados ou outras tecnologias semelhantes. As configurações do navegador do seu dispositivo podem ser alteradas.

Para certos fins, podem ser invocados interesses legítimos ao invés de consentimento. Pode ler mais informação sobre este assunto na nossa Política de Privacidade e Cookies.